Location: Bonac
(42.8765°N, 0.9753°E)
Time: 06:43:18
(UTC+00:00)

Cosmos 1953 - Pass Details

Date: 12 January 2026
Orbit: 474 x 489 km, 82.5° (Epoch: 10 February)

Event Time Altitude Azimuth Distance (km) Brightness Sun altitude
Rises 17:14:50 0° 8° (N) 2,583 5.4 -5.9°
Reaches altitude 10° 17:17:29 10° 27° (NNE) 1,696 4.4 -6.4°
Maximum altitude 17:20:05 18° 72° (ENE) 1,271 3.5 -6.8°
Drops below altitude 10° 17:22:41 10° 117° (ESE) 1,686 4.4 -7.3°
Sets 17:25:18 0° 137° (SE) 2,562 5.5 -7.7°
